Other Surface Observations
Issued by NWS Tucson, AZ

Home | Current Version | Previous Version | Text Only | Print | Product List | Glossary On
Versions: 1 2 3 4 5 6 7 8 9 10 11 12 13 14 15 16 17 18 19 20 21 22 23 24 25 26 27 28 29 30 31 32 33 34 35 36 37 38 39 40 41 42 43 44 45 46 47 48 49 50
000
SXUS55 KTWC 200615
OSOTWC

WEATHER ROUNDUP FOR SOUTHEAST ARIZONA
NATIONAL WEATHER SERVICE TUCSON AZ
1115 PM MST THU JAN 19 2017

AZZ504>506-514-200715-
LOCATION       SKY/WX    TMP DP  RH WIND       PRES   REMARKS
TUCSON         MOCLDY    54  35  48 S12       29.92S
DAVIS-MONTHAN  PTCLDY    52  35  51 SW13      29.90F
CHILDRENS PARK N/A      N/A N/A  40 S2                PIMA CO DEQ
ALVERNON/22ND  N/A       55 N/A N/A SW4               PIMA CO DEQ
CHERRY/GLENN   N/A       56 N/A N/A SW4               PIMA CO DEQ
TANGERINE      N/A       52 N/A N/A SE2               PIMA CO DEQ
CONTL RANCH    N/A       55  33  43 S5                PIMA CO DEQ
GRANT/1ST      N/A       56  32  40 SW5               PIMA CO DEQ
CRAYCROFT/22ND N/A       54  34  46 N/A               PIMA CO DEQ
GOLFLINKS/KOLB N/A       55  32  42 SW6               PIMA CO DEQ
AJO/12TH       N/A       54  35  48 S7                PIMA CO DEQ
FAIRGROUNDS    N/A       52 N/A N/A W3                PIMA CO DEQ
SAGUARO        N/A       51  34  53 N3                *SABINO CYN
SAN CARLOS     N/A       43  43  99 CALM              *SAN CARLOS
GREEN VALLEY   N/A       51  32  48 SW16              PIMA CO DEQ
HORSE CAMP CYN N/A       45  36  70 SW6G12            *ARAVAIPA CYN
RINCON MTNS    NOT AVBL
$$

AZZ509>511-200715-
LOCATION       SKY/WX    TMP DP  RH WIND       PRES   REMARKS
SAFFORD        CLOUDY    42  41  96 NE7       29.87F
STRAY HORSE    N/A       29  29  100 N/A              *
TRAIL CABIN    N/A       35  33  93 NW3               *N OF GRANVILLE
BLACK HILLS    NOT AVBL
DRY LAKE       N/A       30  30  100 SW7G15           *NATANES MTNS
NOON CREEK     NOT AVBL
COLUMBINE      N/A       23  23  99 SW6G14            *PINALENO MTNS
GUTHRIE        N/A       36  34  91 W4G13             *SW OF GUTHRIE
$$

AZZ502-503-513-200715-
LOCATION       SKY/WX    TMP DP  RH WIND       PRES   REMARKS
NOGALES        PTCLDY    45  30  55 SW7       29.95S
SELLS          N/A       52  41  66 SE5G10            *
SASABE         N/A       45  36  70 SW5G10            *ALTAR VLY
HOPKINS        N/A       32  26  77 SW3G17            *SANTA RITA MTNS
CARR CYN       N/A       42  27  55 SW5G13            *W OF HEREFORD
$$

AZZ507-508-512-200715-
LOCATION       SKY/WX    TMP DP  RH WIND       PRES   REMARKS
SIERRA VISTA   PTCLDY    45  28  50 CALM      29.92F
DOUGLAS        CLOUDY    46  30  53 S8        29.94S
EMPIRE MTNS    NOT AVBL
MULESHOE RANCH N/A       46  28  50 W7G13             *PRESERVE
HEADQUARTERS   NOT AVBL
$$

.............................NOTES.............................
THIS IS AN AUTOMATED COLLECTIVE WITH MINIMAL QUALITY CONTROL.
PIMA CO DEQ SITES HAVE NONSTANDARD WIND SENSOR HEIGHTS.
PIMA CO DEQ SITES DO NOT REPORT WIND GUSTS.
* INDICATES WIND SENSORS LOCATED AT 20 FEET INSTEAD OF 33 FEET.
..............................KEY..............................
SKY/WX - SKY CONDITION/WEATHER
TMP    - TEMPERATURE IN FAHRENHEIT
DP     - DEWPOINT IN FAHRENHEIT
RH     - RELATIVE HUMIDITY IN PERCENT
WIND   - DIRECTION AND SPEED IN MILES PER HOUR (MPH)
VRB    - VARIABLE WIND DIRECTION
PRES   - MEAN SEA LEVEL PRESSURE IN INCHES OF MERCURY
         F - FALLING PRESSURE   R - RISING PRESSURE
         S - STEADY PRESSURE
VSB    - VISIBILITY IN MILES
HX     - HEAT INDEX IN FAHRENHEIT
WCI    - WIND CHILL INDEX IN FAHRENHEIT
N/A    - NOT AVAILABLE
AFB    - AIR FORCE BASE
         DAVIS-MONTHAN IS DAVIS-MONTHAN AIR FORCE BASE
CYN    - CANYON
MTNS   - MOUNTAINS
NCA    - NATIONAL CONSERVATION AREA
NR     - NEAR
VLY    - VALLEY
CONTL  - CONTINENTAL
PIMA CO DEQ - PIMA COUNTY DEPT OF ENVIRONMENTAL QUALITY



USA.gov is the U.S. government's official web portal to all federal, state and local government web resources and services.